Home > Weather > Randers > Past weeks

Flag for Denmark Past Weather in Randers, Denmark — Yesterday and Last 2 Weeks

Now
63 °F

Overcast.


Feels Like: 63 °F
Forecast: 52 / 68 °F
Wind: 3 mph from Southwest

Location: Tirstrup

Current Time: Jul 30, 2016 at 3:56:09 AM

Latest Report: Jul 30, 2016 at 3:20 AM


Visibility: N/A

Pressure: 29.74 "Hg

Humidity: 83%

Dew Point: 57 °F

Location of RandersLocation

Past Weather in Randers — Graph

°F

Randers Temperature Yesterday

Maximum temperature yesterday: 70 °F (at 1:20 PM)
Minimum temperature yesterday: 55 °F (at 2:50 AM)
Average temperature yesterday: 64 °F

High & Low Weather Summary for the Past Weeks

 TemperatureHumidityPressure
High81 °F (Jul 22, 3:20 PM)94% (Jul 15, 2:50 AM)30.15 "Hg (Jul 15, 2:50 AM)
Low52 °F (Jul 17, 5:20 AM)28% (Jul 24, 2:20 PM)29.74 "Hg (Jul 29, 6:50 PM)
Average65 °F68%30.03 "Hg
* Reported Jul 15 2:20 AM — Jul 30 2:50 AM, Randers, Weather by CustomWeather, © 2016

Note: Actual official high and low records may vary slightly from our data, if they occured in-between our weather recording intervals... More about our weather records

Advertising

Randers Weather History for the Previous 24 Hours

Scroll right to see more
 ConditionsComfort  
Time TempWeatherWind HumidityBarometerVisibility
2:50 AM
Sat, Jul 30
63 °FOvercast.3 mph83%29.74 "HgN/A
2:20 AM63 °FPassing clouds.3 mph83%29.74 "HgN/A
1:50 AM63 °FPassing clouds.3 mph83%29.74 "HgN/A
1:20 AM63 °FOvercast.3 mph83%29.74 "HgN/A
12:50 AM63 °FPassing clouds.3 mph83%29.74 "HgN/A
12:20 AM61 °FPassing clouds.2 mph88%29.74 "HgN/A
11:50 PM
Fri, Jul 29
63 °FPassing clouds.3 mph83%29.77 "Hg6 mi
11:20 PM64 °FPartly cloudy.2 mph83%29.77 "Hg6 mi
10:50 PM64 °FPassing clouds.1 mph83%29.77 "HgN/A
10:20 PM64 °FPartly sunny.1 mph83%29.77 "HgN/A
9:50 PM64 °FPartly sunny.2 mph83%29.77 "HgN/A
9:20 PM66 °FBroken clouds.No wind78%29.77 "HgN/A
8:50 PM66 °FPartly sunny.1 mph78%29.74 "HgN/A
8:20 PM66 °FPassing clouds.1 mph78%29.74 "HgN/A
7:50 PM68 °FPartly sunny.3 mph69%29.74 "HgN/A
7:20 PM68 °FPassing clouds.6 mph69%29.74 "HgN/A
6:50 PM70 °FScattered clouds.5 mph64%29.74 "HgN/A
6:20 PM68 °FBroken clouds.2 mph73%29.77 "HgN/A
5:50 PM70 °FRain. Partly sunny.3 mph69%29.77 "HgN/A
5:20 PM68 °FSprinkles. Partly sunny.3 mph78%29.77 "HgN/A
4:50 PM68 °FRain. Broken clouds.6 mph73%29.77 "HgN/A
4:20 PM70 °FPartly sunny.7 mph64%29.77 "HgN/A
3:50 PM70 °FPartly sunny.6 mph60%29.77 "HgN/A
3:20 PM70 °FBroken clouds.5 mph60%29.77 "HgN/A
2:50 PM70 °FPartly sunny.6 mph60%29.80 "HgN/A
2:20 PM70 °FBroken clouds.5 mph60%29.80 "HgN/A
1:50 PM70 °FPartly sunny.7 mph64%29.80 "HgN/A
1:20 PM70 °FLight rain. Partly sunny.8 mph60%29.80 "HgN/A
12:50 PM68 °FPartly sunny.5 mph64%29.80 "HgN/A
12:20 PM68 °FPartly sunny.3 mph64%29.83 "HgN/A
11:50 AM68 °FPartly sunny.5 mph60%29.83 "HgN/A
11:20 AM68 °FLight rain. Overcast.5 mph64%29.83 "HgN/A
10:50 AM66 °FPartly sunny.3 mph64%29.83 "HgN/A
10:20 AM66 °FPartly sunny.3 mph68%29.83 "HgN/A
9:50 AM66 °FPartly sunny.3 mph68%29.83 "HgN/A
9:20 AM64 °FOvercast.3 mph73%29.83 "HgN/A
8:50 AM64 °FOvercast.2 mph73%29.86 "HgN/A
8:20 AM64 °FOvercast.2 mph78%29.86 "HgN/A
7:50 AM63 °FOvercast.2 mph83%29.83 "HgN/A
7:20 AM61 °FBroken clouds.No wind88%29.83 "HgN/A
6:50 AM61 °FPartly sunny.No wind83%29.83 "HgN/A
6:20 AM59 °FPartly sunny.1 mph88%29.86 "HgN/A
5:50 AM59 °FPassing clouds.3 mph88%29.86 "HgN/A
5:20 AM59 °FPassing clouds.3 mph88%29.86 "HgN/A
4:50 AM57 °FOvercast.3 mph88%29.86 "HgN/A
4:20 AM55 °FPassing clouds.2 mph82%29.86 "HgN/A
3:50 AM55 °FPassing clouds.No wind82%29.86 "Hg3 mi
3:20 AM55 °FPassing clouds.No wind82%29.86 "HgN/A
Weather by CustomWeather, © 2016

See weather overviewHow to use our weather pages